Newport News, VA

9:41 PM EST on February 11, 2016 (GMT -0500)
Newport News-Williamsburg International

Weather History for KPHF - November, 2013

Change the Weather History Date:

Saturday, November 9, 2013

  Actual Average Record
Temperature  
Mean Temperature 47 °F -  
Max Temperature 60 °F 63 °F 78 °F (1948)
Min Temperature 34 °F 45 °F 28 °F (1971)
Degree Days  
Heating Degree Days 18    
Moisture  
Dew Point 33 °F    
Average Humidity 60    
Maximum Humidity 89    
Minimum Humidity 32    
Precipitation  
Precipitation 0.00 in - - ()
Sea Level Pressure  
Sea Level Pressure 30.28 in    
Wind  
Wind Speed 3 mph (SW)    
Max Wind Speed 13 mph    
Max Gust Speed -    
Visibility 10 miles    
Events Rain    
Averages and records for this station are not official NWS values.
T = Trace of Precipitation, MM = Missing Value Source: NWS Daily Summary

Daily Weather History Graph

Daily Weather History Graph

Search for Another Location

Airport or City:

Trip Planner

Search our weather history database for the weather conditions in past years. The results will help you decide how hot, cold, wet, or windy it might be!

Date:

Astronomy

Nov. 09, 2013 Rise Set
Actual Time 6:38 AM EST 5:00 PM EST
Civil Twilight 6:11 AM EST 5:27 PM EST
Nautical Twilight 5:40 AM EST 5:58 PM EST
Astronomical Twilight 5:09 AM EST 6:29 PM EST
Moon 12:15 PM EST (11/9) 11:26 PM EST (11/9)
Length of Visible Light 11h 16m
Length of Day
10h 21m
Waxing Crescent, 44% of the Moon is Illuminated
Nov 9
Waxing Crescent
Nov 10
First Quarter
Nov 17
Full
Nov 25
Last Quarter
Dec 2
New

Hourly Weather History & Observations

Time (EST) Temp. Dew Point Humidity Pressure Visibility Wind Dir Wind Speed Gust Speed Precip Events Conditions
12:54 AM 36.0 °F 30.9 °F 82% 30.34 in 10.0 mi Calm Calm - N/A   Clear
1:54 AM 35.1 °F 30.9 °F 85% 30.34 in 10.0 mi Calm Calm - N/A   Clear
2:54 AM 34.0 °F 30.0 °F 85% 30.35 in 10.0 mi Calm Calm - N/A   Clear
3:54 AM 35.1 °F 30.0 °F 82% 30.35 in 10.0 mi Calm Calm - N/A   Clear
4:54 AM 34.0 °F 30.9 °F 89% 30.35 in 10.0 mi Calm Calm - N/A   Clear
5:54 AM 34.0 °F 30.0 °F 85% 30.34 in 10.0 mi Calm Calm - N/A   Clear
6:54 AM 34.0 °F 30.0 °F 85% 30.37 in 10.0 mi Calm Calm - N/A   Clear
7:54 AM 39.9 °F 34.0 °F 79% 30.38 in 10.0 mi Calm Calm - N/A   Clear
8:54 AM 51.1 °F 36.0 °F 56% 30.38 in 10.0 mi Calm Calm - N/A   Clear
9:54 AM 54.0 °F 33.1 °F 45% 30.37 in 10.0 mi Calm Calm - N/A   Clear
10:54 AM 55.9 °F 32.0 °F 40% 30.35 in 10.0 mi South 3.5 mph - N/A   Clear
11:54 AM 55.9 °F 33.1 °F 42% 30.32 in 10.0 mi SSW 9.2 mph - N/A   Clear
12:54 PM 57.9 °F 32.0 °F 37% 30.28 in 10.0 mi South 9.2 mph - N/A   Clear
1:54 PM 59.0 °F 30.0 °F 33% 30.25 in 10.0 mi SSW 10.4 mph - 0.00 in   Clear
2:54 PM 60.1 °F 30.0 °F 32% 30.23 in 10.0 mi SW 10.4 mph - 0.00 in Rain Light Rain
3:54 PM 57.9 °F 30.9 °F 36% 30.22 in 10.0 mi SW 12.7 mph - 0.00 in   Clear
4:54 PM 55.0 °F 33.1 °F 43% 30.22 in 10.0 mi SW 9.2 mph - N/A   Clear
5:54 PM 51.1 °F 35.1 °F 54% 30.23 in 10.0 mi SW 9.2 mph - N/A   Clear
6:54 PM 52.0 °F 37.0 °F 57% 30.21 in 10.0 mi SSW 10.4 mph - N/A   Clear
7:54 PM 51.1 °F 37.0 °F 59% 30.21 in 10.0 mi SW 9.2 mph - N/A   Clear
8:54 PM 51.1 °F 36.0 °F 56% 30.20 in 10.0 mi SW 8.1 mph - N/A   Clear
9:54 PM 51.1 °F 36.0 °F 56% 30.17 in 10.0 mi SW 12.7 mph - N/A   Clear
10:54 PM 51.1 °F 35.1 °F 54% 30.13 in 10.0 mi SW 12.7 mph - N/A   Clear
11:54 PM 50.0 °F 35.1 °F 57% 30.13 in 10.0 mi SW 9.2 mph - N/A   Clear